Visibility
15.0 15.0 15.0 15.0 15.0 15.0 15.0 15.0 15.0 15.0 15.0 15.0 15.0 15.0 15.0 15.0 14.4 15.0 14.9 15.0 15.0 14.2 15.0 15.0 15.0 15.0 15.0
15.0 15.0 15.0 15.0 15.0 15.0 15.0 15.0 15.0 15.0 15.0 15.0 15.0 15.0 15.0 15.0 15.0 13.8 13.8 10.9 12.0 8.0 14.5 12.0 15.0 15.0 15.0
15.0 15.0 15.0 15.0 15.0 15.0 15.0 15.0 15.0 15.0 15.0 15.0 15.0 15.0 15.0 15.0 15.0 15.0 15.0 15.0 15.0 15.0 15.0 15.0 15.0 15.0 15.0
15.0 15.0 15.0 15.0 15.0 15.0 15.0 15.0 15.0 15.0 15.0 15.0 15.0 15.0 15.0 15.0 15.0 15.0 15.0 15.0 15.0 15.0 15.0 15.0 14.1 15.0 15.0
15.0 15.0 9.4 15.0 15.0 15.0 15.0 15.0 15.0 15.0 15.0 15.0 15.0 15.0 15.0 15.0 15.0 15.0 15.0 15.0 15.0 15.0 15.0 13.5 10.7 14.2 15.0
13.8 11.2 15.0 15.0 15.0 15.0 15.0 0.5 1.0 15.0 15.0 15.0 15.0 15.0 15.0 15.0 15.0 15.0 15.0 15.0 15.0 13.7 15.0 15.0 9.7 11.1 6.4
15.0 15.0 15.0 15.0 14.4 2.7 0.7 0.4 2.6 15.0 15.0 15.0 15.0 15.0 15.0 15.0 15.0 15.0 15.0 15.0 15.0 12.3 12.6 15.0 14.3 10.2 10.5
15.0 15.0 15.0 15.0 9.6 9.4 13.8 15.0 15.0 15.0 15.0 3.2 15.0 15.0 15.0 15.0 15.0 15.0 15.0 15.0 15.0 15.0 11.6 12.8 12.0 6.7 11.5
15.0 15.0 15.0 15.0 15.0 15.0 15.0 4.5 4.8 15.0 15.0 14.9 15.0 15.0 15.0 15.0 15.0 15.0 15.0 15.0 15.0 15.0 15.0 15.0 15.0 15.0 15.0
15.0 15.0 15.0 15.0 15.0 15.0 11.3 0.4 0.4 0.7 15.0 0.5 15.0 4.6 4.7 15.0 15.0 15.0 15.0 15.0 15.0 15.0 15.0 15.0 15.0 15.0 15.0
15.0 15.0 15.0 15.0 15.0 15.0 15.0 2.0 0.3 0.3 15.0 0.5 0.3 5.0 0.2 3.1 15.0 15.0 15.0 15.0 15.0 15.0 15.0 15.0 15.0 15.0 15.0
15.0 15.0 15.0 15.0 15.0 15.0 15.0 15.0 14.1 1.1 15.0 5.6 0.1 0.6 0.1 0.4 11.8 15.0 15.0 15.0 15.0 15.0 15.0 15.0 15.0 15.0 11.1
9.3 15.0 15.0 15.0 15.0 15.0 15.0 15.0 15.0 15.0 15.0 15.0 1.6 0.8 0.1 0.2 0.5 3.7 15.0 15.0 15.0 15.0 15.0 15.0 15.0 15.0 3.6
7.5 13.2 15.0 7.0 7.8 15.0 2.2 12.2 1.0 15.0 15.0 15.0 15.0 0.7 0.1 0.4 0.3 0.7 15.0 0.9 15.0 15.0 15.0 15.0 15.0 15.0 15.0
1.7 2.2 6.0 9.1 10.2 15.0 4.2 0.9 0.3 2.3 11.2 15.0 15.0 15.0 15.0 1.8 0.1 15.0 15.0 15.0 15.0 15.0 8.0 1.1 15.0 15.0 15.0
1.9 1.4 0.7 1.2 1.8 9.3 12.5 1.2 0.4 4.7 5.1 15.0 15.0 6.7 15.0 15.0 11.0 1.9 7.9 4.0 15.0 15.0 1.5 0.1 2.0 15.0 15.0
1.0 1.4 0.5 0.8 4.2 2.7 4.2 3.4 4.9 15.0 15.0 14.4 0.1 0.1 0.1 4.5 15.0 10.0 0.1 2.2 13.8 2.0 14.6 9.1 1.7 15.0 15.0